Location: Moscow
(38.8570°N, 84.2291°W)
Time: 18:27:46
(UTC+00:00)

Cosmos 1464 Rocket - Pass Details

Date: 15 November 2025
Orbit: 950 x 1001 km, 82.9° (Epoch: 12 December)

Event Time Altitude Azimuth Distance (km) Brightness Sun altitude
Rises 23:21:03 0° 165° (SSE) 3,698 7.0 -11.5°
Reaches altitude 10° 23:23:42 10° 158° (SSE) 2,748 6.3 -12.0°
Maximum altitude 23:29:34 42° 89° (E) 1,365 4.3 -13.1°
Drops below altitude 10° 23:35:24 10° 21° (NNE) 2,732 6.0 -14.2°
Sets 23:38:01 0° 15° (NNE) 3,676 6.7 -14.7°
